Location: Alta
(39.2070°N, 120.8111°W)
Time: 12:50:37
(UTC+00:00)

ITAMSAT 1 - Visible Passes

Search period start: 02 April 2023 00:00
Search period end: 12 April 2023 00:00
Orbit: 784 x 795 km, 98.8° (Epoch: 01 April)

Date Brightness Start Highest point End Pass type
(mag) Time Alt. Az. Time Alt. Az. Time Alt. Az.
02 Apr 8.3 02:58:41 10° SE 03:03:21 35° ENE 03:08:03 10° N visible
02 Apr 9.5 04:38:25 10° SSW 04:42:47 27° W 04:47:12 10° NW visible
03 Apr 8.4 04:07:55 10° S 04:12:59 52° W 04:18:06 10° NNW visible
04 Apr 7.6 03:38:06 10° SSE 03:43:18 82° ENE 03:48:34 10° NNW visible
04 Apr 10.5 05:22:03 10° WSW 05:23:20 11° W 05:24:36 10° WNW visible
05 Apr 8.1 03:08:52 10° SE 03:13:46 43° ENE 03:18:41 10° N visible
05 Apr 9.8 04:49:22 10° SW 04:53:21 22° W 04:57:21 10° NW visible
06 Apr 8.8 04:18:36 10° S 04:23:30 42° W 04:28:27 10° NNW visible
07 Apr 7.7 03:48:34 10° SSE 03:53:47 81° WSW 03:59:02 10° NNW visible
08 Apr 7.8 03:19:08 10° SSE 03:24:11 53° ENE 03:29:17 10° N visible
08 Apr 10.1 05:00:30 10° SW 05:03:55 18° W 05:07:22 10° NW visible
09 Apr 9.2 04:29:20 10° SSW 04:34:01 33° W 04:38:44 10° NNW visible
10 Apr 8.0 03:59:05 10° S 04:04:15 65° WSW 04:09:28 10° NNW visible
11 Apr 7.7 03:29:27 10° SSE 03:34:36 67° ENE 03:39:49 10° N visible
11 Apr 10.3 05:11:52 10° WSW 05:14:29 14° W 05:17:08 10° WNW visible
